EW8682 Weather Reports


Display with metric or nautical units.
time (UTC)temp
F
wind
direction
speed
MPH
gust
MPH
rain 1hr
in
rain 24hr
in
rain mn
in
humidity
%
barometer
mb
20260904043036 64 179 0.0 0.0 0.00 0.00 0.00 76 1004.1
20260904041530 65 179 0.0 0.0 0.00 0.00 0.00 73 1004.1
20260904040030 65 179 0.0 0.0 0.00 0.00 0.00 72 1003.8
20260904034529 67 179 0.0 0.0 0.00 0.00 0.00 69 1003.7
20260904033030 68 179 0.0 0.0 0.00 0.00 0.00 68 1003.6
20260904031536 69 179 0.0 2.0 0.00 0.00 0.00 67 1003.6
20260904030028 70 179 0.0 2.0 0.00 0.00 0.00 65 1003.4
20260904024527 71 178 0.0 2.0 0.00 0.00 0.00 63 1003.3
20260904023027 72 178 0.0 2.0 0.00 0.00 0.00 63 1003.2
20260904021530 73 178 1.0 5.0 0.00 0.00 0.00 61 1003.2
20260904020026 74 178 0.0 6.0 0.00 0.00 0.00 61 1003.3
20260904014526 74 184 1.0 5.0 0.00 0.00 0.00 60 1003.2
20260904013024 76 176 3.0 5.0 0.00 0.00 0.00 57 1003.2
20260904011524 77 194 2.0 5.0 0.00 0.00 0.00 53 1003.2
20260904010023 77 204 3.0 6.0 0.00 0.00 0.00 51 1003.3
20260904004520 78 191 3.0 7.0 0.00 0.00 0.00 51 1003.2
20260904003019 78 172 3.0 9.0 0.00 0.00 0.00 49 1003.3
20260904001518 79 181 5.0 9.0 0.00 0.00 0.00 50 1003.3
20260904000018 79 193 3.0 8.0 0.00 0.00 0.00 51 1003.3
20260903234515 79 175 4.0 10.0 0.00 0.00 0.00 51 1003.4
20260903233010 80 188 1.0 9.0 0.00 0.00 0.00 50 1003.5
20260903231509 79 173 3.0 8.0 0.00 0.00 0.00 50 1003.5
20260903230007 79 187 3.0 9.0 0.00 0.00 0.00 52 1003.7
20260903224515 80 180 3.0 9.0 0.00 0.00 0.00 51 1003.7
20260903223004 80 184 3.0 11.0 0.00 0.00 0.00 50 1003.9
20260903221503 80 204 6.0 10.0 0.00 0.00 0.00 49 1004.1
20260903220003 80 193 3.0 8.0 0.00 0.00 0.00 50 1004.1
20260903214503 80 173 1.0 10.0 0.00 0.00 0.00 50 1004.3
20260903213100 80 194 2.0 9.0 0.00 0.00 0.00 50 1004.3
20260903211607 80 181 4.0 9.0 0.00 0.00 0.00 48 1004.3
20260903210058 80 184 3.0 9.0 0.00 0.00 0.00 45 1004.4
20260903204601 81 163 4.0 9.0 0.00 0.00 0.00 44 1004.5
20260903203056 80 266 4.0 8.0 0.00 0.00 0.00 45 1004.5
20260903201600 80 175 0.0 8.0 0.00 0.00 0.00 44 1004.6
20260903200058 79 181 3.0 7.0 0.00 0.00 0.00 45 1004.8
20260903194547 79 223 4.0 8.0 0.00 0.00 0.00 44 1005.0
20260903193044 78 196 3.0 8.0 0.00 0.00 0.00 46 1005.2
20260903191541 77 204 4.0 6.0 0.00 0.00 0.00 48 1005.5
20260903190037 76 225 3.0 8.0 0.00 0.00 0.00 51 1005.7
20260903184534 75 173 4.0 8.0 0.00 0.00 0.00 54 1005.9
20260903183031 74 178 1.0 7.0 0.00 0.00 0.00 57 1006.1
20260903181529 74 199 2.0 7.0 0.00 0.00 0.00 59 1006.2
20260903180033 73 240 3.0 6.0 0.00 0.00 0.00 61 1006.2
20260903174522 72 207 2.0 8.0 0.00 0.00 0.00 62 1006.3
20260903173017 70 182 2.0 6.0 0.00 0.00 0.00 65 1006.3
20260903171516 70 169 3.0 8.0 0.00 0.00 0.00 66 1006.4
20260903170014 70 219 3.0 6.0 0.00 0.00 0.00 64 1006.3
20260903164511 68 192 1.0 6.0 0.00 0.00 0.00 60 1006.3
20260903163006 67 200 1.0 4.0 0.00 0.00 0.00 62 1006.2
20260903161502 65 174 0.0 3.0 0.00 0.00 0.00 70 1006.3
20260903160059 64 163 0.0 2.0 0.00 0.00 0.00 70 1006.3
20260903154601 64 157 0.0 3.0 0.00 0.00 0.00 73 1006.4
20260903153112 63 127 0.0 3.0 0.00 0.00 0.00 74 1006.3
20260903151604 62 42 1.0 3.0 0.00 0.00 0.00 68 1006.3
20260903150104 61 43 2.0 4.0 0.00 0.00 0.00 58 1006.3
20260903144552 59 43 2.0 4.0 0.00 0.00 0.00 58 1006.3
20260903143059 58 45 1.0 3.0 0.00 0.00 0.00 61 1006.1
20260903141549 57 43 1.0 3.0 0.00 0.00 0.00 64 1006.1
20260903140047 56 44 1.0 3.0 0.00 0.00 0.00 64 1006.0
20260903134549 56 42 0.0 2.0 0.00 0.00 0.00 67 1005.9
20260903133044 55 44 1.0 3.0 0.00 0.00 0.00 70 1005.9
20260903131544 55 44 1.0 2.0 0.00 0.00 0.00 71 1006.0
20260903130043 55 47 1.0 3.0 0.00 0.00 0.00 72 1005.9
20260903124543 55 46 0.0 2.0 0.00 0.00 0.00 70 1005.9
20260903123041 55 46 1.0 2.0 0.00 0.00 0.00 70 1005.8
20260903121539 55 45 0.0 2.0 0.00 0.00 0.00 68 1005.9
20260903120041 56 46 1.0 2.0 0.00 0.00 0.00 70 1006.0
20260903114535 56 46 0.0 3.0 0.00 0.00 0.00 70 1006.0
20260903113034 56 46 2.0 3.0 0.00 0.00 0.00 67 1006.0
20260903111536 56 42 1.0 2.0 0.00 0.00 0.00 67 1006.0
20260903110031 57 42 0.0 2.0 0.00 0.00 0.00 63 1006.2
20260903104529 56 42 1.0 2.0 0.00 0.00 0.00 65 1006.2
20260903103026 57 43 0.0 2.0 0.00 0.00 0.00 63 1006.3
20260903101527 57 44 1.0 2.0 0.00 0.00 0.00 61 1006.3
20260903100021 58 44 1.0 3.0 0.00 0.00 0.00 59 1006.2
20260903094520 58 43 1.0 3.0 0.00 0.00 0.00 59 1006.2
20260903093020 59 44 1.0 2.0 0.00 0.00 0.00 56 1006.4
20260903091517 59 44 1.0 2.0 0.00 0.00 0.00 56 1006.6
20260903090017 60 45 2.0 3.0 0.00 0.00 0.00 56 1006.7
20260903084518 61 47 0.0 0.0 0.00 0.00 0.00 51 1006.7
20260903083006 61 42 1.0 3.0 0.00 0.00 0.00 50 1006.8
20260903081504 62 46 0.0 3.0 0.00 0.00 0.00 50 1006.9
20260903080003 64 44 1.0 3.0 0.00 0.00 0.00 47 1006.8
20260903074502 64 45 2.0 4.0 0.00 0.00 0.00 46 1006.9
20260903073058 64 38 1.0 3.0 0.00 0.00 0.00 48 1006.9
20260903071557 63 32 2.0 3.0 0.00 0.00 0.00 51 1006.9
20260903070053 63 44 1.0 3.0 0.00 0.00 0.00 52 1006.8
20260903064554 63 45 1.0 4.0 0.00 0.00 0.00 50 1006.8
20260903063053 63 38 1.0 4.0 0.00 0.00 0.00 50 1006.7
20260903061552 64 21 1.0 2.0 0.00 0.00 0.00 50 1006.6
20260903060051 64 12 0.0 4.0 0.00 0.00 0.00 49 1006.6
20260903054556 63 94 1.0 3.0 0.00 0.00 0.00 51 1006.6
20260903053049 63 154 1.0 2.0 0.00 0.00 0.00 53 1006.7
20260903051549 63 155 1.0 3.0 0.00 0.00 0.00 53 1006.8
20260903050049 63 156 0.0 3.0 0.00 0.00 0.00 52 1006.8
20260903044550 63 157 2.0 3.0 0.00 0.00 0.00 52 1006.8